Location: Cicognara
(44.9500°N, 10.4667°E)
Time: 09:32:15
(UTC+00:00)

Meteor 1-11 - Visible Passes

Search period start: 28 October 2021 00:00
Search period end: 07 November 2021 00:00
Orbit: 840 x 887 km, 81.2° (Epoch: 27 October)

Date Brightness Start Highest point End Pass type
(mag) Time Alt. Az. Time Alt. Az. Time Alt. Az.
28 Oct 6.3 18:03:55 10° NNW 18:08:39 28° W 18:13:24 10° SW visible
29 Oct 6.3 17:55:48 10° NNW 18:00:33 29° W 18:05:19 10° SSW visible
30 Oct 6.3 17:47:40 10° NNW 17:52:26 29° W 17:57:14 10° SSW visible
31 Oct 5.5 05:17:32 10° SSE 05:22:49 46° E 05:28:07 10° NNE visible
31 Oct 6.3 17:39:33 10° NNW 17:44:20 29° W 17:49:09 10° SSW visible
01 Nov 5.5 05:09:26 10° SSE 05:14:43 46° E 05:20:00 10° NNE visible
01 Nov 6.4 17:31:26 10° NNW 17:36:14 29° W 17:41:03 10° SSW visible
02 Nov 5.5 05:01:20 10° SSE 05:06:36 45° E 05:11:53 10° NNE visible
02 Nov 6.4 17:23:19 10° NNW 17:28:07 29° W 17:32:58 10° SSW visible
03 Nov 5.5 04:53:14 10° SSE 04:58:29 45° E 05:03:46 10° NNE visible
03 Nov 6.4 17:15:11 10° NNW 17:20:01 30° W 17:24:52 10° SSW visible
04 Nov 5.5 04:45:08 10° SSE 04:50:22 45° E 04:55:39 10° NNE visible
04 Nov 6.4 17:07:04 10° NNW 17:11:55 30° W 17:16:47 10° SSW visible
05 Nov 5.5 04:37:01 10° SSE 04:42:16 44° E 04:47:33 10° NNE visible
05 Nov 6.4 16:58:56 10° NNW 17:03:48 30° W 17:08:42 10° SSW visible
06 Nov 5.4 04:28:55 10° SSE 04:34:09 44° E 04:39:26 10° NNE visible
06 Nov 6.4 16:50:49 10° NNW 16:55:41 30° W 17:00:36 10° SSW visible
